| time (UTC) | temp F | wind direction | speed MPH | gust MPH | rain 1hr in | rain 24hr in | rain mn in | humidity % | barometer mb |
| 20260505080001 | 45 | 271 | 4.0 | 18.0 | 0.00 | 0.67 | 0.00 | 80 | 1006.3 |
| 20260505074602 | 45 | 182 | 5.0 | 20.0 | 0.00 | 0.67 | 0.00 | 80 | 1006.1 |
| 20260505073111 | 45 | 203 | 2.0 | 12.0 | 0.00 | 0.67 | 0.00 | 80 | 1006.0 |
| 20260505071600 | 45 | 284 | 3.0 | 15.0 | 0.00 | 0.67 | 0.00 | 80 | 1005.8 |
| 20260505070054 | 45 | 234 | 3.0 | 9.0 | 0.00 | 0.67 | 0.00 | 78 | 1005.6 |
| 20260505064550 | 45 | 254 | 6.0 | 16.0 | 0.00 | 0.69 | 0.00 | 78 | 1005.4 |
| 20260505063048 | 46 | 260 | 5.0 | 14.0 | 0.00 | 0.69 | 0.00 | 77 | 1004.9 |
| 20260505061552 | 46 | 216 | 5.0 | 15.0 | 0.00 | 0.69 | 0.00 | 77 | 1004.8 |
| 20260505060044 | 47 | 253 | 6.0 | 19.0 | 0.00 | 0.69 | 0.00 | 77 | 1004.6 |
| 20260505054559 | 47 | 217 | 2.0 | 10.0 | 0.00 | 0.71 | 0.00 | 77 | 1004.4 |
| 20260505053039 | 47 | 281 | 6.0 | 14.0 | 0.00 | 0.71 | 0.00 | 77 | 1004.3 |
| 20260505051535 | 47 | 246 | 9.0 | 18.0 | 0.00 | 0.71 | 0.00 | 77 | 1004.1 |
| 20260505041522 | 48 | 208 | 5.0 | 12.0 | 0.00 | 0.72 | 0.00 | 77 | 1003.7 |
| 20260505040020 | 48 | 240 | 7.0 | 21.0 | 0.00 | 0.72 | 0.00 | 77 | 1003.3 |
| 20260505034515 | 48 | 227 | 6.0 | 19.0 | 0.00 | 0.72 | 0.00 | 76 | 1003.2 |
| 20260505033013 | 49 | 250 | 6.0 | 15.0 | 0.00 | 0.72 | 0.00 | 75 | 1003.1 |
| 20260505031530 | 49 | 225 | 4.0 | 19.0 | 0.00 | 0.72 | 0.00 | 74 | 1002.7 |
| 20260505030009 | 49 | 202 | 5.0 | 18.0 | 0.00 | 0.79 | 0.72 | 74 | 1002.5 |
| 20260505024513 | 49 | 238 | 4.0 | 16.0 | 0.00 | 0.79 | 0.72 | 72 | 1002.3 |
| 20260505023009 | 49 | 229 | 7.0 | 18.0 | 0.00 | 0.79 | 0.72 | 70 | 1002.0 |
| 20260505021504 | 49 | 233 | 3.0 | 14.0 | 0.00 | 0.79 | 0.72 | 70 | 1002.1 |
| 20260505020002 | 49 | 226 | 5.0 | 18.0 | 0.00 | 1.09 | 0.72 | 69 | 1001.6 |
| 20260505014609 | 49 | 273 | 3.0 | 12.0 | 0.00 | 1.09 | 0.72 | 67 | 1001.4 |
| 20260505013109 | 49 | 202 | 6.0 | 13.0 | 0.00 | 1.09 | 0.72 | 67 | 1001.3 |
| 20260505011556 | 49 | 200 | 6.0 | 12.0 | 0.00 | 1.09 | 0.72 | 65 | 1001.0 |
| 20260505010055 | 49 | 217 | 5.0 | 17.0 | 0.00 | 1.09 | 0.72 | 66 | 1000.8 |
| 20260505004557 | 48 | 227 | 7.0 | 16.0 | 0.00 | 1.38 | 0.72 | 68 | 1000.7 |
| 20260505003053 | 48 | 220 | 5.0 | 16.0 | 0.00 | 1.38 | 0.72 | 64 | 1000.9 |
| 20260505001556 | 48 | 279 | 4.0 | 13.0 | 0.00 | 1.38 | 0.72 | 63 | 1000.7 |
| 20260505000106 | 47 | 209 | 3.0 | 9.0 | 0.00 | 1.38 | 0.72 | 61 | 1000.4 |
| 20260504234546 | 48 | 207 | 4.0 | 14.0 | 0.00 | 1.56 | 0.72 | 65 | 1000.0 |
| 20260504233046 | 48 | 286 | 6.0 | 15.0 | 0.00 | 1.56 | 0.72 | 64 | 999.8 |
| 20260504231545 | 49 | 233 | 8.0 | 19.0 | 0.00 | 1.56 | 0.72 | 62 | 999.4 |
| 20260504230100 | 49 | 211 | 6.0 | 18.0 | 0.00 | 1.56 | 0.72 | 62 | 999.4 |
| 20260504224540 | 50 | 216 | 9.0 | 22.0 | 0.00 | 1.88 | 0.72 | 62 | 999.1 |
| 20260504223040 | 50 | 259 | 11.0 | 27.0 | 0.00 | 1.88 | 0.72 | 61 | 998.8 |
| 20260504221550 | 50 | 238 | 9.0 | 29.0 | 0.00 | 1.88 | 0.72 | 62 | 998.8 |
| 20260504220037 | 50 | 279 | 8.0 | 27.0 | 0.00 | 1.88 | 0.72 | 62 | 998.6 |
| 20260504214537 | 51 | 267 | 12.0 | 28.0 | 0.00 | 1.95 | 0.72 | 62 | 998.5 |
| 20260504213042 | 51 | 213 | 12.0 | 32.0 | 0.00 | 1.95 | 0.72 | 61 | 998.4 |
| 20260504211533 | 51 | 195 | 11.0 | 27.0 | 0.00 | 1.95 | 0.72 | 62 | 998.4 |
| 20260504210033 | 51 | 287 | 14.0 | 27.0 | 0.00 | 1.95 | 0.72 | 63 | 998.1 |
| 20260504204537 | 50 | 225 | 8.0 | 26.0 | 0.00 | 2.06 | 0.72 | 64 | 998.2 |
| 20260504203031 | 50 | 244 | 14.0 | 41.0 | 0.00 | 2.06 | 0.72 | 65 | 997.9 |
| 20260504201529 | 51 | 265 | 13.0 | 26.0 | 0.00 | 2.06 | 0.72 | 64 | 997.4 |
| 20260504200025 | 50 | 202 | 10.0 | 35.0 | 0.00 | 2.06 | 0.72 | 69 | 997.2 |
| 20260504194524 | 50 | 263 | 12.0 | 37.0 | 0.00 | 2.08 | 0.72 | 71 | 996.8 |
| 20260504193019 | 48 | 205 | 15.0 | 28.0 | 0.00 | 2.08 | 0.72 | 73 | 996.5 |
| 20260504191516 | 48 | 213 | 15.0 | 35.0 | 0.00 | 2.08 | 0.72 | 74 | 996.0 |
| 20260504190015 | 47 | 292 | 9.0 | 28.0 | 0.00 | 2.08 | 0.72 | 76 | 995.7 |
| 20260504184514 | 48 | 274 | 9.0 | 24.0 | 0.00 | 2.08 | 0.72 | 77 | 995.5 |
| 20260504183008 | 47 | 236 | 9.0 | 31.0 | 0.00 | 2.08 | 0.72 | 80 | 995.1 |
| 20260504181506 | 45 | 252 | 7.0 | 35.0 | 0.00 | 2.08 | 0.72 | 82 | 995.1 |
| 20260504180003 | 45 | 229 | 11.0 | 35.0 | 0.00 | 2.08 | 0.72 | 84 | 994.9 |
| 20260504174600 | 44 | 242 | 11.0 | 30.0 | 0.00 | 2.08 | 0.72 | 85 | 994.6 |
| 20260504173056 | 44 | 224 | 13.0 | 29.0 | 0.01 | 2.08 | 0.72 | 87 | 993.6 |
| 20260504171552 | 43 | 113 | 13.0 | 28.0 | 0.03 | 2.08 | 0.72 | 89 | 992.8 |
| 20260504081541 | 37 | 255 | 2.0 | 5.0 | 0.01 | 1.42 | 0.06 | 95 | 974.2 |